Preview of NWS' New Version of Forecast
This preview is not operational and should not be used for support decisions.

Regional Weather Roundup (RWR)

Issued by National Weather Service (NWS)

                            
000
ASUS45 KBOI 190210
RWRID 

IDAHO REGIONAL WEATHER ROUNDUP
NATIONAL WEATHER SERVICE BOISE ID
800 PM MDT TUE JUN 18 2019

NOTE: "FAIR" INDICATES FEW OR NO CLOUDS BELOW 12000 FEET
WITH NO SIGNIFICANT WEATHER AND/OR OBSTRUCTIONS TO VISIBILITY

IDZ012-014-190300-
SOUTHWEST IDAHO

  
CITY           SKY/WX    TMP DP  RH WIND       PRES   REMARKS
BOISE          SUNNY     85  40  20 NW17      29.93F                  
CALDWELL       SUNNY     85  46  25 NW13      29.92S                  
MOUNTAIN HOME  SUNNY     84  39  19 NW21      29.93S                  
$$

IDZ016-017-190300-
SOUTHCENTRAL IDAHO

  
CITY           SKY/WX    TMP DP  RH WIND       PRES   REMARKS
BURLEY         SUNNY     76  38  25 W9G17     29.96S                  
JEROME         SUNNY     78  41  26 W20G28    29.98S                  
TWIN FALLS     SUNNY     78  41  26 NW14G24   29.99S                  
$$

IDZ019>023-190300-
SOUTHEAST IDAHO

  
CITY           SKY/WX    TMP DP  RH WIND       PRES   REMARKS
IDAHO FALLS    PTSUNNY   70  48  45 SW5       29.98F                  
POCATELLO      MOSUNNY   76  38  25 SW14      29.98F                  
REXBURG        PTSUNNY   66  51  58 S9        30.00R                  
$$

IDZ006-010-011-018-031-032-190300-
CENTRAL IDAHO MOUNTAINS

  
CITY           SKY/WX    TMP DP  RH WIND       PRES   REMARKS
MCCALL         SUNNY     73  38  27 W9        30.05R                  
HAILEY         SUNNY     75  41  29 W10       30.00R                  
STANLEY          N/A     69  36  29 W10       30.12R                  
SALMON         SUNNY     79  37  22 NW13      29.92R                  
CHALLIS        SUNNY     78  44  29 NW9       29.97R                  
$$

IDZ002-004-006-007-026-190300-
NORTHERN IDAHO

  
CITY           SKY/WX    TMP DP  RH WIND       PRES   REMARKS
LEWISTON       SUNNY     82  44  26 NW14G20   29.94S                  
LOWELL           N/A     72  56  57 CALM      29.94R                  
COEUR D'ALENE  MOSUNNY   78  46  32 SW14      29.93S                  
MULLAN PASS    MOSUNNY   57  41  55 W6          N/A                   
$$